轨道通信卫星FM31星 (ORBCOMM FM31)

导读

ORBCOMM FM 31是ORBCOMM公司的低地球轨道通信卫星,于1999年12月04日成功发射,隶属于ORBCOMM卫星星座系统。该卫星运行于近地轨道,主要服务于机器对机器(M2M)通信和物联网领域,通过窄带通信技术实现全球范围低成本数据传输。它工作在VHF和UHF波段,采用GMSK调制,单信道带宽仅5kHz,适配低速率数据传输需求,为物联网设备连接提供支持。

基本信息
目录编号:
25981
目录名称:
ORBCOMM FM 31
国际标识:
1999-065B
轨道中心:
EARTH
卫星名称:
轨道通信卫星FM31星
卫星全名:
轨道通信卫星FM31星 (ORBCOMM FM31)
卫星状态:
在轨 (已飞行9778 天)
发射日期:
1999-12-04 UTC
国别 :
(ORB)
星等 :
--
该卫星已列入 空间交会检测服务 Space Conjunction Data Service (SCDS) ,当前飞行风险评估等级: 无高风险
轨道信息
数据来源 国际轨道数据 AOE轨道数据
星历时间 2026-09-11T08:08:27+0800
12小时前
查看轨道信息
2026-09-05T23:00:00+0800
5天前
查看轨道信息
半长轴 7142.694km 7142.716km
偏心率 0.0004001 0.0003706
轨道倾角 45.022° 45.022°
近地点辐角 122.690° 88.212°
升交点赤经 107.425° 132.934°
平近点角 237.434° 106.015°
近地点 761.699km 761.931km
远地点 767.415km 767.227km
周期 100.127分钟 100.128分钟
每日圈数 14.381685 14.381618
详细信息
固有亮度:
8
最大亮度:
6.9
平衡模式:
三轴稳定
覆盖范围:
全球
运营商:
轨道通信公司
运营商所在国:
美国
制造商(研发单位):
轨道ATK公司
制造商所在国:
美国
使用方式:
暂无
卫星简介
轨道通信FM(Orbcomm FM)是一系列低地球轨道通信卫星,由美国卫星通信公司 Orbcomm运营。 截至2015年12月,已有63颗此类卫星绕地球运行。该卫星已退役。
2D轨道图
3D轨道图
轨道高度分析图
轨道倾角分析图
轨道综合分析图
查看轨道综合分析图
交会数据列表
事件ID 空间交会对象 最接近时刻(TCA) 交会距离 交会风险概率(CRP) 交会风险指数(CRI) 操作
CDM_260907-101802-598104-233524
2026-09-07T
10:18:51+0000
2.735 km
极远距离
1.479243E-6 低风险 0.38
与全量物体交会距离演化趋势
与全量物体交会风险概率演化趋势